Location: Austin
(30.3000°N, 97.7500°W)
Time: 01:07:37
(UTC-05:00)

Cosmos 1943 Rocket - Pass Details

Date: 15 May 2024
Orbit: 810 x 844 km, 71.0° (Epoch: 29 May)

Event Time Altitude Azimuth Distance (km) Brightness Sun altitude
Rises 21:51:45 0° 356° (N) 3,403 6.0 -18.3°
Reaches altitude 10° 21:54:44 10° 11° (N) 2,463 4.9 -18.8°
Maximum altitude 21:59:08 23° 62° (ENE) 1,724 3.6 -19.6°
Enters shadow 22:00:09 22° 77° (ENE) 1,769 3.5 -19.8°
